Hourly Weather Barrancas

Today, 31 October, Saturday

Time Temperature Precipitation Wind Pressure Humidity
00:00 +26°C° 0 mm 1 mps 756 mmHg 97%
01:00 +26°C° 0 mm 1 mps 756 mmHg 97%
02:00 +26°C° 0 mm 1 mps 756 mmHg 98%
03:00 +26°C° 0 mm 1 mps 756 mmHg 97%
04:00 +26°C° 0 mm 1 mps 756 mmHg 97%
05:00 +26°C° 0 mm 1 mps 755 mmHg 97%
06:00 +27°C° 0 mm 1 mps 756 mmHg 93%
07:00 +28°C° 0 mm 2 mps 756 mmHg 88%
08:00 +29°C° 0 mm 2 mps 757 mmHg 84%
09:00 +31°C° 0 mm 2 mps 757 mmHg 76%
10:00 +34°C° 0 mm 3 mps 757 mmHg 68%
11:00 +35°C° 0 mm 3 mps 757 mmHg 59%
12:00 +36°C° 0.2 mm 3 mps 756 mmHg 59%
13:00 +36°C° 0.2 mm 3 mps 755 mmHg 58%
14:00 +36°C° 0.2 mm 3 mps 754 mmHg 58%
15:00 +34°C° 0.9 mm 3 mps 754 mmHg 65%
16:00 +32°C° 0.9 mm 2 mps 754 mmHg 73%
17:00 +30°C° 0.9 mm 2 mps 754 mmHg 81%
18:00 +29°C° 0.6 mm 2 mps 755 mmHg 83%
19:00 +28°C° 0.6 mm 2 mps 755 mmHg 85%
20:00 +28°C° 0.6 mm 2 mps 756 mmHg 88%
21:00 +27°C° 0 mm 2 mps 756 mmHg 90%
22:00 +27°C° 0 mm 1 mps 756 mmHg 92%
23:00 +26°C° 0 mm 1 mps 756 mmHg 94%

Tomorrow, 1 November, Sunday

Time Temperature Precipitation Wind Pressure Humidity
00:00 +26°C° 0 mm 1 mps 756 mmHg 95%
01:00 +26°C° 0 mm 1 mps 756 mmHg 97%
02:00 +26°C° 0 mm 1 mps 755 mmHg 98%
03:00 +26°C° 0 mm 1 mps 755 mmHg 98%
04:00 +26°C° 0 mm 1 mps 755 mmHg 98%
05:00 +26°C° 0 mm 1 mps 755 mmHg 98%
06:00 +27°C° 0.1 mm 1 mps 756 mmHg 94%
07:00 +28°C° 0.1 mm 1 mps 756 mmHg 89%
08:00 +29°C° 0.1 mm 2 mps 757 mmHg 84%
09:00 +31°C° 0.2 mm 2 mps 757 mmHg 75%
10:00 +34°C° 0.2 mm 2 mps 757 mmHg 66%
11:00 +35°C° 0.2 mm 3 mps 757 mmHg 57%
12:00 +35°C° 0.5 mm 3 mps 756 mmHg 59%
13:00 +35°C° 0.5 mm 3 mps 755 mmHg 62%
14:00 +35°C° 0.5 mm 3 mps 754 mmHg 64%
15:00 +33°C° 1.3 mm 3 mps 754 mmHg 71%
16:00 +31°C° 1.3 mm 2 mps 754 mmHg 78%
17:00 +29°C° 1.3 mm 2 mps 754 mmHg 85%
18:00 +28°C° 0.1 mm 2 mps 755 mmHg 88%
19:00 +28°C° 0.1 mm 2 mps 755 mmHg 90%
20:00 +27°C° 0.1 mm 1 mps 756 mmHg 93%
21:00 +27°C° 0.2 mm 1 mps 756 mmHg 94%
22:00 +26°C° 0.2 mm 1 mps 756 mmHg 95%
23:00 +26°C° 0.2 mm 1 mps 756 mmHg 97%

Day after tomorrow, 2 November, Monday

Time Temperature Precipitation Wind Pressure Humidity
00:00 +26°C° 0.3 mm 1 mps 756 mmHg 97%
01:00 +26°C° 0.3 mm 1 mps 755 mmHg 97%
02:00 +26°C° 0.3 mm 1 mps 755 mmHg 98%
03:00 +25°C° 0.1 mm 1 mps 755 mmHg 98%
04:00 +25°C° 0.1 mm 1 mps 755 mmHg 98%
05:00 +23°C° 0.1 mm 0 mps 755 mmHg 98%
06:00 +24°C° 0.3 mm 0 mps 756 mmHg 94%
07:00 +25°C° 0.3 mm 0 mps 756 mmHg 91%
08:00 +26°C° 0.3 mm 0 mps 757 mmHg 88%
09:00 +29°C° 1.2 mm 1 mps 757 mmHg 84%
10:00 +30°C° 1.2 mm 1 mps 757 mmHg 80%
11:00 +31°C° 1.2 mm 2 mps 757 mmHg 76%
12:00 +30°C° 0.8 mm 1 mps 757 mmHg 81%
13:00 +29°C° 0.8 mm 1 mps 756 mmHg 86%
14:00 +26°C° 0.8 mm 0 mps 755 mmHg 91%
15:00 +25°C° 0.4 mm 0 mps 755 mmHg 92%
16:00 +25°C° 0.4 mm 0 mps 755 mmHg 92%
17:00 +25°C° 0.4 mm 0 mps 755 mmHg 93%
18:00 +24°C° 0.1 mm 0 mps 756 mmHg 94%
19:00 +24°C° 0.1 mm 0 mps 756 mmHg 94%
20:00 +23°C° 0.1 mm 0 mps 757 mmHg 95%
21:00 +23°C° 0 mm 0 mps 757 mmHg 95%
22:00 +23°C° 0 mm 0 mps 757 mmHg 96%
23:00 +23°C° 0 mm 0 mps 757 mmHg 96%

3 November, Tuesday

Time Temperature Precipitation Wind Pressure Humidity
00:00 +23°C° 0 mm 0 mps 756 mmHg 97%
01:00 +22°C° 0 mm 0 mps 756 mmHg 97%
02:00 +22°C° 0 mm 0 mps 756 mmHg 97%
03:00 +22°C° 0 mm 0 mps 756 mmHg 97%
04:00 +22°C° 0 mm 0 mps 756 mmHg 97%
05:00 +22°C° 0 mm 0 mps 756 mmHg 98%
06:00 +23°C° 0 mm 0 mps 756 mmHg 94%
07:00 +26°C° 0 mm 1 mps 757 mmHg 91%
08:00 +27°C° 0 mm 1 mps 757 mmHg 87%
09:00 +28°C° 0 mm 1 mps 757 mmHg 80%
10:00 +30°C° 0 mm 2 mps 757 mmHg 72%
11:00 +33°C° 0 mm 3 mps 757 mmHg 64%
12:00 +33°C° 0.2 mm 3 mps 757 mmHg 65%
13:00 +33°C° 0.2 mm 3 mps 756 mmHg 65%
14:00 +33°C° 0.2 mm 3 mps 755 mmHg 66%
15:00 +31°C° 0.1 mm 3 mps 755 mmHg 69%
16:00 +30°C° 0.1 mm 3 mps 755 mmHg 72%
17:00 +29°C° 0.1 mm 3 mps 755 mmHg 75%
18:00 +28°C° 0 mm 2 mps 755 mmHg 81%
19:00 +27°C° 0 mm 2 mps 756 mmHg 88%
20:00 +25°C° 0 mm 1 mps 757 mmHg 94%
21:00 +25°C° 0 mm 1 mps 757 mmHg 95%
22:00 +25°C° 0 mm 1 mps 757 mmHg 96%
23:00 +24°C° 0 mm 1 mps 757 mmHg 97%

4 November, Wednesday

Time Temperature Precipitation Wind Pressure Humidity
00:00 +24°C° 0 mm 1 mps 757 mmHg 97%
01:00 +22°C° 0 mm 0 mps 756 mmHg 96%
02:00 +22°C° 0 mm 0 mps 756 mmHg 96%
03:00 +22°C° 0 mm 0 mps 756 mmHg 97%
04:00 +22°C° 0 mm 0 mps 756 mmHg 97%
05:00 +22°C° 0 mm 0 mps 756 mmHg 98%
06:00 +25°C° 0 mm 1 mps 757 mmHg 93%
07:00 +27°C° 0 mm 1 mps 758 mmHg 87%
08:00 +28°C° 0 mm 1 mps 758 mmHg 82%
09:00 +29°C° 0.9 mm 1 mps 758 mmHg 82%
10:00 +29°C° 0.9 mm 2 mps 758 mmHg 83%
11:00 +30°C° 0.9 mm 2 mps 758 mmHg 84%
12:00 +30°C° 1.5 mm 2 mps 757 mmHg 84%
13:00 +30°C° 1.5 mm 2 mps 756 mmHg 84%
14:00 +30°C° 1.5 mm 3 mps 755 mmHg 85%
15:00 +29°C° 0.4 mm 2 mps 755 mmHg 85%
16:00 +29°C° 0.4 mm 2 mps 755 mmHg 86%
17:00 +28°C° 0.4 mm 2 mps 755 mmHg 86%
18:00 +27°C° 0.4 mm 2 mps 756 mmHg 90%
19:00 +26°C° 0.4 mm 2 mps 756 mmHg 93%
20:00 +26°C° 0.4 mm 2 mps 757 mmHg 96%
21:00 +25°C° 0 mm 1 mps 757 mmHg 96%
22:00 +25°C° 0 mm 1 mps 757 mmHg 97%
23:00 +25°C° 0 mm 1 mps 757 mmHg 98%

5 November, Thursday

Time Temperature Precipitation Wind Pressure Humidity
00:00 +25°C° 0.1 mm 1 mps 757 mmHg 98%
01:00 +25°C° 0.1 mm 1 mps 756 mmHg 98%
02:00 +25°C° 0.1 mm 1 mps 756 mmHg 98%
03:00 +25°C° 0.1 mm 1 mps 756 mmHg 98%
04:00 +25°C° 0.1 mm 1 mps 756 mmHg 98%
05:00 +25°C° 0.1 mm 1 mps 756 mmHg 98%
06:00 +25°C° 0.1 mm 1 mps 756 mmHg 96%
07:00 +26°C° 0.1 mm 1 mps 757 mmHg 94%
08:00 +27°C° 0.1 mm 1 mps 757 mmHg 91%
09:00 +29°C° 0 mm 2 mps 757 mmHg 79%
10:00 +31°C° 0 mm 2 mps 757 mmHg 66%
11:00 +34°C° 0 mm 2 mps 757 mmHg 53%
12:00 +34°C° 0.2 mm 2 mps 756 mmHg 56%
13:00 +34°C° 0.2 mm 2 mps 755 mmHg 59%
14:00 +34°C° 0.2 mm 2 mps 754 mmHg 63%
15:00 +32°C° 0.6 mm 2 mps 754 mmHg 69%
16:00 +30°C° 0.6 mm 2 mps 753 mmHg 76%
17:00 +29°C° 0.6 mm 2 mps 753 mmHg 83%
18:00 +28°C° 0.1 mm 2 mps 754 mmHg 87%
19:00 +27°C° 0.1 mm 1 mps 754 mmHg 92%
20:00 +26°C° 0.1 mm 1 mps 755 mmHg 96%
21:00 +26°C° 0.3 mm 1 mps 755 mmHg 97%
22:00 +25°C° 0.3 mm 1 mps 755 mmHg 98%
23:00 +25°C° 0.3 mm 1 mps 755 mmHg 98%
Show more